DELTA 1 DEB, 10251

Orbit data source: Space-Track

DELTA 1 DEB, 10251 is space debris in LEO originally from a launch on Thu, 14 Jul 1977 UTC launched from the Air Force Eastern Test Range (AFETR). Debris objects in space refer to the collection of defunct objects orbiting the Earth. Examples of debris include non-operational satellites, rocket bodies, and fragments generated from explosions, collisions, or faulty payload assembly.

Loading next visibility...
Identifier
10251, 1977-065CC
Orbit
LEO
Country
Flag of USUS
Related business
Manufacturer
Unknown
Mission
Spacecraft
Bus & Motor
Unknown
Mass
Unknown
Launch date (UTC)
1977-07-14 (48 years ago)
Launch vehicle
Unknown
Launch site
Air Force Eastern Test Range (AFETR)
Object type
Payload
Rocket body
Debris
Shape & HBR
Unknown shape, 0.1 m
Radar Cross Section
Small (<0.1 m²)

Expand to show TLE details & history
Last TLE update: 22 hours ago

TLE from 22 hours ago
0 DELTA 1 DEB
1 10251U 77065CC  25348.66094508  .00003149  00000-0  41352-3 0  9999
2 10251  28.9763 102.2046 0671499 280.9542  71.6238 13.84596053391663
Epoch: 2025-12-14T15:51Z
TLE epoch observation values (Epoch: 2025-12-14T15:51:45.654Z)
Latitude
-0.00003°
Longitude
140.69366°
Altitude
821.619 km
Speed
7.507 km/s
True Right ascension
06h 48m 49s
True Declination
0° 00' 00"
Sunlit
Object was in full shadow at epoch
Visualization orbit readout
Latitude
Unknown
Longitude
Unknown
Altitude
Unknown
Speed
Unknown
Apparent Right ascension
Unknown
Apparent Declination
Unknown
Sunlit
N/A
Visualization observer readout
Local Sidereal Time
11:59:57
Azimuth
Unknown
Elevation
Unknown
Doppler factor
Unknown
Orbital elements
Apogee altitude
1,443.747 km
Perigee altitude
459.37 km
Semi-major axis
7,329.695 km
Eccentricity
0.06715
Inclination
28.9763°
RAAN
102.2046°
Arg. of periapsis
280.9542°
True anomaly
79.10313°
Mean anomaly
71.6238°
Eccentric anomaly
75.34606°
Mean motion
3.45871 °/min
Orbital period
104.09 mins
BSTAR
0.00041352
Loading maneuver chart data...
Computing Atmospheric mass density...
Loading historical data...
Loading historical data...
Loading historical data...
Loading historical data...
Loading historical data...
Loading historical data...
Loading historical data...

Documentation

Showing up to 5 results
|